Time,TemperatureF,DewpointF,PressureIn,WindDirection,WindDirectionDegrees,WindSpeedMPH,WindSpeedGustMPH,Humidity,HourlyPrecipIn,Conditions,Clouds,dailyrainin,SoftwareType,DateUTC
2013-11-25 00:00:00,24.1,14.4,30.27,NNW,337,3.2,-999.0,66,-99.99,,,0.00,Acu-Link.com,2013-11-25 06:00:00,
2013-11-25 00:15:00,24.3,14.9,30.27,West,270,2.2,-999.0,67,-99.99,,,0.00,Acu-Link.com,2013-11-25 06:15:00,
2013-11-25 00:30:00,24.6,15.2,30.26,SW,225,1.7,-999.0,67,-99.99,,,0.00,Acu-Link.com,2013-11-25 06:30:00,
2013-11-25 00:45:00,24.8,15.1,30.26,SSE,157,2.7,-999.0,66,-99.99,,,0.00,Acu-Link.com,2013-11-25 06:45:00,
2013-11-25 01:00:00,25.0,15.6,30.26,SSE,157,2.2,-999.0,67,-99.99,,,0.00,Acu-Link.com,2013-11-25 07:00:00,
2013-11-25 01:16:00,25.0,15.6,30.26,ESE,112,2.7,-999.0,67,-99.99,,,0.00,Acu-Link.com,2013-11-25 07:16:00,
2013-11-25 01:31:00,25.0,15.3,30.26,WSW,247,2.2,-999.0,66,-99.99,,,0.00,Acu-Link.com,2013-11-25 07:31:00,
2013-11-25 01:46:00,25.2,14.8,30.25,ESE,112,1.1,-999.0,64,-99.99,,,0.00,Acu-Link.com,2013-11-25 07:46:00,
2013-11-25 02:01:00,25.3,15.2,30.24,ENE,67,1.1,-999.0,65,-99.99,,,0.00,Acu-Link.com,2013-11-25 08:01:00,
2013-11-25 02:16:00,25.3,15.6,30.24,SW,225,1.1,-999.0,66,-99.99,,,0.00,Acu-Link.com,2013-11-25 08:16:00,
2013-11-25 02:32:00,25.3,15.9,30.23,South,180,1.1,-999.0,67,-99.99,,,0.00,Acu-Link.com,2013-11-25 08:32:00,
2013-11-25 02:47:00,25.3,16.2,30.23,NNE,22,1.7,-999.0,68,-99.99,,,0.00,Acu-Link.com,2013-11-25 08:47:00,
2013-11-25 03:02:00,25.5,16.4,30.21,South,180,1.7,-999.0,68,-99.99,,,0.00,Acu-Link.com,2013-11-25 09:02:00,
2013-11-25 03:17:00,25.7,16.3,30.21,WSW,247,1.7,-999.0,67,-99.99,,,0.00,Acu-Link.com,2013-11-25 09:17:00,
2013-11-25 03:33:00,25.7,16.6,30.20,SW,225,3.2,-999.0,68,-99.99,,,0.00,Acu-Link.com,2013-11-25 09:33:00,
2013-11-25 03:48:00,25.7,16.6,30.20,SSW,202,1.7,-999.0,68,-99.99,,,0.00,Acu-Link.com,2013-11-25 09:48:00,
2013-11-25 04:03:00,25.9,16.8,30.20,WSW,247,3.2,-999.0,68,-99.99,,,0.00,Acu-Link.com,2013-11-25 10:03:00,
2013-11-25 04:18:00,25.9,17.2,30.18,NNW,337,1.7,-999.0,69,-99.99,,,0.00,Acu-Link.com,2013-11-25 10:18:00,
2013-11-25 04:33:00,26.1,17.3,30.19,SSW,202,3.2,-999.0,69,-99.99,,,0.00,Acu-Link.com,2013-11-25 10:33:00,
2013-11-25 04:49:00,26.1,18.3,30.18,SW,225,3.2,-999.0,72,-99.99,,,0.00,Acu-Link.com,2013-11-25 10:49:00,
2013-11-25 05:04:00,26.1,19.0,30.17,East,90,2.2,-999.0,74,-99.99,,,0.00,Acu-Link.com,2013-11-25 11:04:00,
2013-11-25 05:19:00,26.1,19.3,30.17,WSW,247,1.7,-999.0,75,-99.99,,,0.00,Acu-Link.com,2013-11-25 11:19:00,
2013-11-25 05:34:00,26.2,19.4,30.16,WNW,292,1.7,-999.0,75,-99.99,,,0.00,Acu-Link.com,2013-11-25 11:34:00,
2013-11-25 05:49:00,26.6,19.1,30.16,SSW,202,1.1,-999.0,73,-99.99,,,0.00,Acu-Link.com,2013-11-25 11:49:00,
2013-11-25 06:05:00,26.8,19.0,30.16,South,180,3.2,-999.0,72,-99.99,,,0.00,Acu-Link.com,2013-11-25 12:05:00,
2013-11-25 06:20:00,27.0,18.9,30.16,South,180,3.2,-999.0,71,-99.99,,,0.00,Acu-Link.com,2013-11-25 12:20:00,
2013-11-25 06:35:00,27.1,18.6,30.15,NNE,22,3.2,-999.0,70,-99.99,,,0.00,Acu-Link.com,2013-11-25 12:35:00,
2013-11-25 06:50:00,27.3,18.8,30.15,SSE,157,4.2,-999.0,70,-99.99,,,0.00,Acu-Link.com,2013-11-25 12:50:00,
2013-11-25 07:05:00,27.3,18.5,30.15,SSW,202,2.7,-999.0,69,-99.99,,,0.00,Acu-Link.com,2013-11-25 13:05:00,
2013-11-25 07:21:00,27.3,18.2,30.14,SE,135,3.2,-999.0,68,-99.99,,,0.00,Acu-Link.com,2013-11-25 13:21:00,
2013-11-25 07:36:00,27.7,17.8,30.14,SW,225,3.2,-999.0,66,-99.99,,,0.00,Acu-Link.com,2013-11-25 13:36:00,
2013-11-25 07:51:00,27.9,18.4,30.13,SSE,157,3.7,-999.0,67,-99.99,,,0.00,Acu-Link.com,2013-11-25 13:51:00,
2013-11-25 08:06:00,28.2,18.3,30.14,SE,135,2.7,-999.0,66,-99.99,,,0.00,Acu-Link.com,2013-11-25 14:06:00,
2013-11-25 08:22:00,28.6,19.1,30.14,SW,225,2.7,-999.0,67,-99.99,,,0.00,Acu-Link.com,2013-11-25 14:22:00,
2013-11-25 08:37:00,28.9,19.3,30.14,SW,225,4.7,-999.0,67,-99.99,,,0.00,Acu-Link.com,2013-11-25 14:37:00,
2013-11-25 08:52:00,29.3,20.1,30.14,NE,45,2.2,-999.0,68,-99.99,,,0.00,Acu-Link.com,2013-11-25 14:52:00,
2013-11-25 09:07:00,29.7,20.5,30.14,South,180,5.3,-999.0,68,-99.99,,,0.00,Acu-Link.com,2013-11-25 15:07:00,
2013-11-25 09:23:00,30.7,21.1,30.13,ENE,67,4.2,-999.0,67,-99.99,,,0.00,Acu-Link.com,2013-11-25 15:23:00,
2013-11-25 09:38:00,31.3,21.3,30.13,East,90,3.2,-999.0,66,-99.99,,,0.00,Acu-Link.com,2013-11-25 15:38:00,
2013-11-25 09:53:00,31.3,21.6,30.14,East,90,2.7,-999.0,67,-99.99,,,0.00,Acu-Link.com,2013-11-25 15:53:00,
2013-11-25 10:09:00,31.8,22.1,30.15,WNW,292,4.2,-999.0,67,-99.99,,,0.00,Acu-Link.com,2013-11-25 16:09:00,
2013-11-25 10:24:00,32.0,22.3,30.14,West,270,5.8,-999.0,67,-99.99,,,0.00,Acu-Link.com,2013-11-25 16:24:00,
2013-11-25 10:39:00,32.2,22.8,30.14,West,270,1.7,-999.0,68,-99.99,,,0.00,Acu-Link.com,2013-11-25 16:39:00,
2013-11-25 10:54:00,33.4,23.6,30.13,WNW,292,4.7,-999.0,67,-99.99,,,0.00,Acu-Link.com,2013-11-25 16:54:00,
2013-11-25 11:09:00,34.0,23.9,30.13,West,270,3.7,-999.0,66,-99.99,,,0.00,Acu-Link.com,2013-11-25 17:09:00,
2013-11-25 11:25:00,35.4,24.8,30.12,South,180,3.7,-999.0,65,-99.99,,,0.00,Acu-Link.com,2013-11-25 17:25:00,
2013-11-25 11:40:00,34.3,24.9,30.10,East,90,5.8,-999.0,68,-99.99,,,0.00,Acu-Link.com,2013-11-25 17:40:00,
2013-11-25 11:55:00,35.2,25.0,30.11,West,270,6.8,-999.0,66,-99.99,,,0.00,Acu-Link.com,2013-11-25 17:55:00,
2013-11-25 12:10:00,35.6,25.7,30.10,SSW,202,4.2,-999.0,67,-99.99,,,0.00,Acu-Link.com,2013-11-25 18:10:00,
2013-11-25 12:26:00,36.1,25.9,30.09,SW,225,8.9,-999.0,66,-99.99,,,0.00,Acu-Link.com,2013-11-25 18:26:00,
2013-11-25 12:41:00,35.6,25.7,30.08,South,180,4.2,-999.0,67,-99.99,,,0.00,Acu-Link.com,2013-11-25 18:41:00,
2013-11-25 12:56:00,36.0,26.1,30.08,West,270,8.3,-999.0,67,-99.99,,,0.00,Acu-Link.com,2013-11-25 18:56:00,
2013-11-25 13:11:00,36.1,26.6,30.08,SSE,157,4.2,-999.0,68,-99.99,,,0.00,Acu-Link.com,2013-11-25 19:11:00,
2013-11-25 13:26:00,37.0,26.7,30.08,SW,225,4.7,-999.0,66,-99.99,,,0.00,Acu-Link.com,2013-11-25 19:26:00,
2013-11-25 13:42:00,36.5,26.6,30.07,NNW,337,3.7,-999.0,67,-99.99,,,0.00,Acu-Link.com,2013-11-25 19:42:00,
2013-11-25 13:57:00,36.3,26.8,30.07,West,270,3.2,-999.0,68,-99.99,,,0.00,Acu-Link.com,2013-11-25 19:57:00,
2013-11-25 14:12:00,36.3,27.1,30.08,NE,45,4.7,-999.0,69,-99.99,,,0.00,Acu-Link.com,2013-11-25 20:12:00,
2013-11-25 14:27:00,36.7,27.5,30.08,West,270,1.7,-999.0,69,-99.99,,,0.00,Acu-Link.com,2013-11-25 20:27:00,
2013-11-25 14:42:00,36.9,27.7,30.08,WNW,292,4.7,-999.0,69,-99.99,,,0.00,Acu-Link.com,2013-11-25 20:42:00,
2013-11-25 14:58:00,37.4,27.8,30.08,SW,225,4.7,-999.0,68,-99.99,,,0.00,Acu-Link.com,2013-11-25 20:58:00,
2013-11-25 15:13:00,37.4,28.2,30.08,West,270,6.3,-999.0,69,-99.99,,,0.00,Acu-Link.com,2013-11-25 21:13:00,
2013-11-25 15:28:00,36.9,28.0,30.09,SSW,202,7.8,-999.0,70,-99.99,,,0.00,Acu-Link.com,2013-11-25 21:28:00,
2013-11-25 15:43:00,36.3,27.8,30.09,WNW,292,4.2,-999.0,71,-99.99,,,0.00,Acu-Link.com,2013-11-25 21:43:00,
2013-11-25 15:58:00,36.0,28.2,30.09,WSW,247,5.3,-999.0,73,-99.99,,,0.00,Acu-Link.com,2013-11-25 21:58:00,
2013-11-25 16:13:00,35.8,28.3,30.10,SW,225,5.3,-999.0,74,-99.99,,,0.00,Acu-Link.com,2013-11-25 22:13:00,
2013-11-25 16:29:00,35.2,28.1,30.11,SSW,202,3.7,-999.0,75,-99.99,,,0.00,Acu-Link.com,2013-11-25 22:29:00,
2013-11-25 16:44:00,34.9,28.4,30.10,WNW,292,2.7,-999.0,77,-99.99,,,0.01,Acu-Link.com,2013-11-25 22:44:00,
2013-11-25 16:59:00,34.7,28.6,30.11,West,270,1.7,-999.0,78,-99.99,,,0.01,Acu-Link.com,2013-11-25 22:59:00,
2013-11-25 17:14:00,34.0,27.9,30.11,SW,225,2.7,-999.0,78,-99.99,,,0.01,Acu-Link.com,2013-11-25 23:14:00,
2013-11-25 17:29:00,33.4,27.6,30.11,WNW,292,2.2,-999.0,79,-99.99,,,0.01,Acu-Link.com,2013-11-25 23:29:00,
2013-11-25 17:45:00,32.5,27.3,30.11,West,270,2.2,-999.0,81,-99.99,,,0.01,Acu-Link.com,2013-11-25 23:45:00,
2013-11-25 18:00:00,32.0,27.1,30.11,South,180,1.1,-999.0,82,-99.99,,,0.01,Acu-Link.com,2013-11-26 00:00:00,
2013-11-25 18:15:00,31.1,26.6,30.12,SE,135,1.7,-999.0,83,-99.99,,,0.01,Acu-Link.com,2013-11-26 00:15:00,
2013-11-25 18:30:00,30.7,26.7,30.11,North,0,0.0,-999.0,85,-99.99,,,0.01,Acu-Link.com,2013-11-26 00:30:00,
2013-11-25 18:45:00,29.8,26.1,30.11,WNW,292,0.0,-999.0,86,-99.99,,,0.01,Acu-Link.com,2013-11-26 00:45:00,
2013-11-25 19:01:00,29.3,25.9,30.11,NNW,337,0.0,-999.0,87,-99.99,,,0.01,Acu-Link.com,2013-11-26 01:01:00,
2013-11-25 19:16:00,29.1,26.0,30.11,NE,45,0.0,-999.0,88,-99.99,,,0.01,Acu-Link.com,2013-11-26 01:16:00,
2013-11-25 19:31:00,29.1,26.0,30.12,ENE,67,0.0,-999.0,88,-99.99,,,0.01,Acu-Link.com,2013-11-26 01:31:00,
2013-11-25 19:46:00,29.1,26.0,30.12,NW,315,0.0,-999.0,88,-99.99,,,0.01,Acu-Link.com,2013-11-26 01:46:00,
2013-11-25 20:02:00,29.3,26.2,30.12,South,180,0.0,-999.0,88,-99.99,,,0.01,Acu-Link.com,2013-11-26 02:02:00,
2013-11-25 20:17:00,29.5,26.4,30.12,NE,45,0.0,-999.0,88,-99.99,,,0.01,Acu-Link.com,2013-11-26 02:17:00,
2013-11-25 20:32:00,29.7,26.6,30.12,South,180,0.0,-999.0,88,-99.99,,,0.01,Acu-Link.com,2013-11-26 02:32:00,
2013-11-25 20:47:00,30.0,26.9,30.12,WSW,247,1.7,-999.0,88,-99.99,,,0.01,Acu-Link.com,2013-11-26 02:47:00,
2013-11-25 21:02:00,29.8,26.7,30.12,SE,135,0.0,-999.0,88,-99.99,,,0.01,Acu-Link.com,2013-11-26 03:02:00,
2013-11-25 21:18:00,29.8,26.7,30.12,SW,225,1.1,-999.0,88,-99.99,,,0.01,Acu-Link.com,2013-11-26 03:18:00,
2013-11-25 21:33:00,29.8,26.7,30.12,WSW,247,2.7,-999.0,88,-99.99,,,0.01,Acu-Link.com,2013-11-26 03:33:00,
2013-11-25 21:48:00,30.0,26.9,30.12,ESE,112,2.2,-999.0,88,-99.99,,,0.01,Acu-Link.com,2013-11-26 03:48:00,
2013-11-25 22:03:00,29.7,26.6,30.12,SSW,202,2.7,-999.0,88,-99.99,,,0.01,Acu-Link.com,2013-11-26 04:03:00,
2013-11-25 22:18:00,29.7,26.6,30.13,ENE,67,2.7,-999.0,88,-99.99,,,0.01,Acu-Link.com,2013-11-26 04:18:00,
2013-11-25 22:34:00,29.7,26.6,30.12,WNW,292,1.7,-999.0,88,-99.99,,,0.01,Acu-Link.com,2013-11-26 04:34:00,
2013-11-25 22:49:00,29.3,26.2,30.12,NE,45,1.1,-999.0,88,-99.99,,,0.01,Acu-Link.com,2013-11-26 04:49:00,
2013-11-25 23:04:00,28.8,26.0,30.12,West,270,1.7,-999.0,89,-99.99,,,0.01,Acu-Link.com,2013-11-26 05:04:00,
2013-11-25 23:19:00,28.2,25.4,30.12,WSW,247,1.7,-999.0,89,-99.99,,,0.01,Acu-Link.com,2013-11-26 05:19:00,
2013-11-25 23:34:00,27.7,25.2,30.12,WNW,292,0.0,-999.0,90,-99.99,,,0.01,Acu-Link.com,2013-11-26 05:34:00,
2013-11-25 23:49:00,27.5,25.0,30.11,West,270,0.0,-999.0,90,-99.99,,,0.01,Acu-Link.com,2013-11-26 05:49:00,